Regional Weather Roundup
Issued by NWS Burlington, VT

Home | Current Version | Previous Version | Text Only | Print | Product List | Glossary On
Versions: 1 2 3 4 5 6 7 8 9 10 11 12 13 14 15 16 17 18 19 20 21 22 23 24 25 26 27 28 29 30 31 32 33 34 35 36 37 38 39 40 41 42 43 44 45 46 47 48 49 50
684
ASUS41 KBTV 090830
RWRBTV
VERMONT REGIONAL WEATHER ROUNDUP
NATIONAL WEATHER SERVICE BURLINGTON VT
300 AM EST TUE FEB 09 2016

NOTE: "FAIR" INDICATES FEW OR NO CLOUDS BELOW 12,000 FEET WITH NO
SIGNIFICANT WEATHER AND/OR OBSTRUCTIONS TO VISIBILITY.

* THESE REPORTS ARE NOT UNDER NWS QUALITY CONTROL AND/OR DO NOT
  REPORT WEATHER SUCH AS PRECIPITATION AND FOG.

VTZ001>019-090900-
_____VERMONT_____


CITY           SKY/WX    TMP DP  RH WIND       PRES   REMARKS
BURLINGTON     LGT SNOW  21  17  84 NE3       29.73F FOG
MONTPELIER     LGT SNOW  17  15  92 CALM      29.73F FOG
MORRISVILLE    LGT SNOW  19  14  81 N3        29.72F
ST. JOHNSBURY*   N/A     19  14  81 MISG      29.71F
LYNDONVILLE*   LGT SNOW  16  13  89 CALM      29.70F
RUTLAND*       CLOUDY    19  16  86 CALM      29.69F
SPRINGFIELD    LGT SNOW  19  16  88 CALM      29.74F FOG
HIGHGATE*      LGT SNOW  19  16  88 NE3       29.75F
NEWPORT*       LGT SNOW  15  12  90 N7        29.72F WCI   5
BENNINGTON     CLOUDY    22  19  89 CALM      29.68F
MT. MANSFIELD*   N/A      7 N/A N/A W7          N/A  WCI  -5

_____LAKE CHAMPLAIN_____


CITY           SKY/WX    TMP DP  RH WIND       PRES   REMARKS
COLCHESTER RF*   N/A     23  21  93 NE8         N/A  WCI  14
DIAMOND ISL*     N/A     25  23  93 N5          N/A  WCI  19

$$

NYZ007-026>031-035-052-083-090900-
_____NORTHERN NEW YORK_____


CITY           SKY/WX    TMP DP  RH WIND       PRES   REMARKS
PLATTSBURGH    LGT SNOW  19  15  84 N8        29.73F FOG     WCI   9
SARANAC LAKE   CLOUDY    16  13  88 NE7       29.59F FOG     WCI   6
MASSENA        LGT SNOW  18  13  80 E13       29.74F WCI   5
OGDENSBURG*    LGT SNOW  19  18  93 E10       29.69F WCI   8
WATERTOWN      LGT SNOW  25  22  88 NE8       29.62F FOG     WCI  16
ALBANY         LGT SNOW  25  21  85 CALM      29.72F FOG
GLENS FALLS    CLOUDY    21  18  88 CALM      29.72F

$$
NHZ002-005-011-090900-
_____NEW HAMPSHIRE_____


CITY           SKY/WX    TMP DP  RH WIND       PRES   REMARKS
LEBANON        LGT SNOW  20  16  84 CALM      29.73F FOG
MT WASHINGTON  SNOW       7   7 100 W7          N/A  VSB 1/8 WCI  -5
PLYMOUTH       LGT SNOW  20  18  93 CALM      29.73F
WHITEFIELD     LGT SNOW  17  10  74 E6        29.69F WCI   9

$$

_____REGIONAL QUEBEC LOCATIONS_____


CITY           SKY/WX    TMP DP  RH WIND       PRES   REMARKS
MONTREAL       FLURRIES  19   7  58 NE14      29.78F WCI   6
QUEBEC CITY    FLURRIES  18  10  73 NE13G25   29.85F WCI   4
SHERBROOKE     LGT SNOW  14  10  85 NE7       29.74F VSB 1   WCI   4

_____REGIONAL ONTARIO LOCATIONS_____


CITY           SKY/WX    TMP DP  RH WIND       PRES   REMARKS
OTTAWA         LGT SNOW  16  12  86 E13G21    29.73F WCI   2

______KEY______
VSB  - VISIBILITY IN MILES
WCI  - WIND CHILL INDEX
HX   - HEAT INDEX
$$
NNNN




USA.gov is the U.S. government's official web portal to all federal, state and local government web resources and services.